Weather Roundup
Issued by NWS Chicago, IL

Home | Current Version | Previous Version | Text Only | Print | Product List | Glossary On
Versions: 1 2 3 4 5 6 7 8 9 10 11 12 13 14 15 16 17 18 19 20 21 22 23 24 25 26 27 28 29 30 31 32 33 34 35 36 37 38 39 40 41 42 43 44 45 46 47 48 49 50
000
NZUS59 KLOT 190410
HRRLOT

CHICAGO AREA WEATHER ROUNDUP
NATIONAL WEATHER SERVICE CHICAGO/ROMEOVILLE IL
1000 PM CST THU DEC 18 2014

NOTE: "FAIR" INDICATES FEW OR NO CLOUDS BELOW 12,000 FEET WITH NO
SIGNIFICANT WEATHER AND/OR OBSTRUCTIONS TO VISIBILITY.

* THESE STATIONS ARE NOT UNDER NWS QUALITY CONTROL. THEY ALSO MAY NOT
  REPORT WEATHER SUCH AS PRECIPITATION OR FOG.

ILZ005-006-012>014-019>023-190500-
NORTHEAST ILLINOIS

CITY           SKY/WX    TMP DP  RH WIND       PRES   REMARKS
OHARE          CLOUDY    28  20  71 NW5       30.24F WCI  23
MIDWAY         CLOUDY    30  20  66 NW7       30.25S WCI  23
AURORA         CLOUDY    27  20  75 W7        30.26F WCI  19
LANSING*       CLOUDY    27  20  76 W6        30.26S WCI  20
JOLIET*        CLOUDY    26  19  77 W5        30.27S WCI  20
WAUKEGAN       CLOUDY    27  23  85 NW6       30.24S WCI  20
DUPAGE AIRPORT CLOUDY    27  19  72 W6        30.24F WCI  20
WHEELING       CLOUDY    28  23  81 NW6       30.26F WCI  22
KANKAKEE*      CLOUDY    24  20  87 W3        30.28S
MORRIS*        CLOUDY    23  21  93 W6        30.26S WCI  16
LEWIS AIRPORT* CLOUDY    26  20  79 W5        30.26S WCI  20
NORTHERLY IS     N/A     30  21  69 W8          N/A  WCI  23
$$

WIZ051-052-058>065-066-070>072-190500-
SOUTHEAST WISCONSIN

CITY           SKY/WX    TMP DP  RH WIND       PRES   REMARKS
MILWAUKEE      CLOUDY    28  20  71 W6        30.25S WCI  22
KENOSHA*       CLOUDY    28  23  81 N5        30.25S WCI  23
RACINE*        CLOUDY    28  23  81 CALM      30.27R
BURLINGTON     CLOUDY    26  23  89 N5        30.25S WCI  20
WAUKESHA       CLOUDY    27  21  80 NW3       30.26S
WEST BEND      CLOUDY    27  21  80 NW5       30.24R WCI  21
$$

INZ001>003-010>013-019-020-190500-
NORTHWEST INDIANA

CITY           SKY/WX    TMP DP  RH WIND       PRES   REMARKS
GARY*          CLOUDY    29  18  61 SW3       30.27R
MICHIGAN CITY* NOT AVBL
RENSSELAER*    NOT AVBL
VALPARAISO     CLOUDY    25  19  78 W6        30.25S WCI  18
$$

LMZ740>746-190500-
SOUTHERN LAKE MICHIGAN

STATION/POSITION TIME  SKY/WX   TEMP WIND        PRES    VSBY
                                AIR  DIR/SP/G
                 (UTC)          (F)  (DEG/KT/KT) (MB)    (MI)
HARRISON CRIB    0400            28  300/  8/ 10   N/A
BURNHAM HARBOR   0400            30  300/  6/  8   N/A
CALUMET HARBOR   0400            28  230/  5/  6 1023.2S
BURNS HARBOR     NOT AVBL
MICHIGAN CITY    NOT AVBL
$$

ABBREVIATIONS USED IN REMARKS
   TC - TEMPERATURE IN CELSIUS
  WCI - WIND CHILL INDEX
   HX - HEAT INDEX
  VSB - VISIBILITY
$$


USA.gov is the U.S. government's official web portal to all federal, state and local government web resources and services.